UAE556 OMDB-UZTT

Flight info

Callsign UAE556
Flight time 3h 1m
Altitude 37000
Route ANVIX DCT TARDI DCT ITURA B400 MCT DCT MESPO W2 PEGOS DCT GADER G206 BUDBO/N0486F380 DCT SIGSI/N0514F290 V717 LABUS/N0481F390 DCT DAVET/K0889F390 DCT IGZAF J1 USETU T609 BAMGU
Aircraft B77W/H-SDE1E2E3FGHIJ2J3J4J5M1RWXY/LB1D1

Departure

Time 2026-04-26 09:24
Airport Dubai International Airport (OMDB)

Arrival

Time 2026-04-26 12:25
Airport Tashkent International Airport (UZTT)
Time Latitude Longitude Altitude Speed Heading
2026-04-26 08:39 25.26205 55.34496 45 ft 0 kts 30°
2026-04-26 09:05 25.26204 55.34495 45 ft 0 kts 30°
2026-04-26 09:05 25.26192 55.34488 45 ft 2 kts 30°
2026-04-26 09:06 25.26179 55.34479 45 ft 2 kts 30°
2026-04-26 09:06 25.26166 55.34470 45 ft 2 kts 30°
2026-04-26 09:06 25.26153 55.34462 45 ft 2 kts 30°
2026-04-26 09:06 25.26140 55.34454 45 ft 2 kts 30°
2026-04-26 09:07 25.26127 55.34445 45 ft 1 kts 56°
2026-04-26 09:07 25.26124 55.34431 45 ft 2 kts 109°
2026-04-26 09:07 25.26128 55.34423 45 ft 1 kts 122°
2026-04-26 09:07 25.26128 55.34422 45 ft 0 kts 122°
2026-04-26 09:10 25.26120 55.34437 45 ft 4 kts 120°
2026-04-26 09:10 25.26100 55.34475 45 ft 4 kts 119°
2026-04-26 09:10 25.26074 55.34522 45 ft 8 kts 122°
2026-04-26 09:11 25.26058 55.34554 45 ft 8 kts 111°
2026-04-26 09:11 25.26086 55.34639 45 ft 12 kts 53°
2026-04-26 09:11 25.26144 55.34711 45 ft 13 kts 44°
2026-04-26 09:11 25.26221 55.34778 45 ft 14 kts 33°
2026-04-26 09:12 25.26310 55.34840 45 ft 15 kts 36°
2026-04-26 09:12 25.26311 55.34945 45 ft 15 kts 120°
2026-04-26 09:12 25.26253 55.35052 45 ft 17 kts 121°
2026-04-26 09:12 25.26187 55.35171 45 ft 19 kts 121°
2026-04-26 09:13 25.26119 55.35294 45 ft 18 kts 121°
2026-04-26 09:13 25.26054 55.35410 45 ft 17 kts 121°
2026-04-26 09:13 25.25973 55.35556 45 ft 28 kts 121°
2026-04-26 09:13 25.25866 55.35749 45 ft 28 kts 121°
2026-04-26 09:14 25.25765 55.35932 45 ft 27 kts 121°
2026-04-26 09:14 25.25675 55.36095 45 ft 19 kts 121°
2026-04-26 09:14 25.25607 55.36215 45 ft 17 kts 122°
2026-04-26 09:14 25.25546 55.36325 45 ft 16 kts 121°
2026-04-26 09:15 25.25487 55.36430 45 ft 15 kts 120°
2026-04-26 09:15 25.25412 55.36569 45 ft 25 kts 121°
2026-04-26 09:15 25.25305 55.36761 45 ft 32 kts 122°
2026-04-26 09:15 25.25201 55.36946 45 ft 26 kts 121°
2026-04-26 09:16 25.25107 55.37115 45 ft 24 kts 121°
2026-04-26 09:16 25.25021 55.37273 45 ft 23 kts 121°
2026-04-26 09:16 25.24940 55.37418 45 ft 21 kts 121°
2026-04-26 09:16 25.24865 55.37553 45 ft 19 kts 121°
2026-04-26 09:17 25.24796 55.37676 45 ft 18 kts 121°
2026-04-26 09:17 25.24754 55.37754 45 ft 17 kts 120°
2026-04-26 09:17 25.24673 55.37899 45 ft 15 kts 122°
2026-04-26 09:17 25.24618 55.37997 46 ft 14 kts 121°
2026-04-26 09:18 25.24567 55.38091 46 ft 13 kts 122°
2026-04-26 09:18 25.24517 55.38179 46 ft 13 kts 121°
2026-04-26 09:18 25.24528 55.38258 46 ft 11 kts 40°
2026-04-26 09:18 25.24590 55.38305 46 ft 10 kts 31°
2026-04-26 09:19 25.24634 55.38311 46 ft 5 kts 338°
2026-04-26 09:19 25.24663 55.38281 46 ft 7 kts 306°
2026-04-26 09:19 25.24668 55.38273 46 ft 0 kts 303°
2026-04-26 09:23 25.24671 55.38268 46 ft 7 kts 302°
2026-04-26 09:23 25.24876 55.37903 46 ft 102 kts 301°
2026-04-26 09:23 25.25387 55.36971 188 ft 171 kts 301°
2026-04-26 09:24 25.26007 55.35815 1114 ft 184 kts 301°
2026-04-26 09:24 25.26615 55.34676 2429 ft 173 kts 302°
2026-04-26 09:24 25.27230 55.33553 3053 ft 181 kts 302°
2026-04-26 09:24 25.27919 55.32332 3698 ft 190 kts 303°
2026-04-26 09:25 25.28608 55.31118 4419 ft 194 kts 302°
2026-04-26 09:25 25.29086 55.29736 5233 ft 193 kts 279°
2026-04-26 09:25 25.29016 55.28254 5900 ft 201 kts 256°
2026-04-26 09:25 25.28478 55.26848 6596 ft 207 kts 247°
2026-04-26 09:26 25.27824 55.25384 7312 ft 213 kts 246°
2026-04-26 09:26 25.27182 55.23932 8090 ft 215 kts 247°
2026-04-26 09:26 25.26552 55.22422 8806 ft 220 kts 246°
2026-04-26 09:26 25.25922 55.20915 9643 ft 221 kts 246°
2026-04-26 09:27 25.25279 55.19378 10372 ft 228 kts 245°
2026-04-26 09:27 25.24336 55.17868 10798 ft 250 kts 223°
2026-04-26 09:27 25.22821 55.16902 11487 ft 261 kts 198°
2026-04-26 09:27 25.20962 55.16706 12075 ft 278 kts 178°
2026-04-26 09:28 25.19071 55.17245 12698 ft 295 kts 155°
2026-04-26 09:28 25.17414 55.18743 13117 ft 321 kts 127°
2026-04-26 09:28 25.16340 55.20984 13563 ft 341 kts 115°
2026-04-26 09:28 25.15350 55.23380 14390 ft 345 kts 117°
2026-04-26 09:29 25.14333 55.25752 15301 ft 349 kts 116°
2026-04-26 09:29 25.13301 55.28222 15768 ft 366 kts 116°
2026-04-26 09:29 25.12208 55.30850 16195 ft 384 kts 116°
2026-04-26 09:29 25.11075 55.33573 16598 ft 402 kts 116°
2026-04-26 09:30 25.09881 55.36441 17017 ft 419 kts 116°
2026-04-26 09:30 25.08653 55.39394 17382 ft 437 kts 116°
2026-04-26 09:30 25.07365 55.42485 17846 ft 450 kts 116°
2026-04-26 09:30 25.06044 55.45659 18642 ft 454 kts 116°
2026-04-26 09:31 25.04735 55.48803 19471 ft 456 kts 116°
2026-04-26 09:31 25.03411 55.51979 20182 ft 462 kts 116°
2026-04-26 09:31 25.02032 55.55213 20782 ft 469 kts 120°
2026-04-26 09:31 25.00403 55.58358 21412 ft 474 kts 123°
2026-04-26 09:32 24.98733 55.61450 22113 ft 478 kts 123°
2026-04-26 09:32 24.97031 55.64592 22748 ft 483 kts 123°
2026-04-26 09:32 24.95283 55.67818 23365 ft 488 kts 123°
2026-04-26 09:32 24.93421 55.71009 23983 ft 491 kts 128°
2026-04-26 09:33 24.91434 55.74033 24617 ft 493 kts 129°
2026-04-26 09:33 24.89408 55.77083 25265 ft 496 kts 129°
2026-04-26 09:33 24.87333 55.80204 25879 ft 500 kts 129°
2026-04-26 09:33 24.85285 55.83285 26462 ft 504 kts 129°
2026-04-26 09:34 24.83193 55.86424 27030 ft 509 kts 129°
2026-04-26 09:34 24.81064 55.89568 27622 ft 512 kts 129°
2026-04-26 09:34 24.78906 55.92705 28238 ft 514 kts 132°
2026-04-26 09:34 24.76461 55.95575 28818 ft 515 kts 139°
2026-04-26 09:35 24.73875 55.98262 29416 ft 517 kts 140°
2026-04-26 09:35 24.71239 56.00972 29910 ft 522 kts 139°
2026-04-26 09:35 24.68541 56.03741 30296 ft 530 kts 139°
2026-04-26 09:35 24.65849 56.06505 30728 ft 535 kts 139°
2026-04-26 09:36 24.64048 56.08355 31076 ft 537 kts 139°
2026-04-26 09:36 24.60377 56.12124 31690 ft 543 kts 138°
2026-04-26 09:36 24.57717 56.15071 32070 ft 549 kts 131°
2026-04-26 09:36 24.55390 56.18430 32480 ft 554 kts 123°
2026-04-26 09:37 24.53295 56.21956 32934 ft 557 kts 122°
2026-04-26 09:37 24.51209 56.25530 33570 ft 557 kts 121°
2026-04-26 09:37 24.49135 56.29083 34390 ft 553 kts 122°
2026-04-26 09:37 24.47081 56.32597 35242 ft 548 kts 122°
2026-04-26 09:38 24.45031 56.36096 35987 ft 544 kts 122°
2026-04-26 09:38 24.42965 56.39621 36591 ft 543 kts 122°
2026-04-26 09:38 24.40931 56.43085 36936 ft 546 kts 122°
2026-04-26 09:39 24.36791 56.50127 36899 ft 544 kts 122°
2026-04-26 09:39 24.32680 56.57106 36890 ft 544 kts 122°
2026-04-26 09:40 24.28567 56.64077 36877 ft 543 kts 122°
2026-04-26 09:40 24.24407 56.71115 36853 ft 542 kts 122°
2026-04-26 09:41 24.20308 56.78042 36855 ft 544 kts 122°
2026-04-26 09:41 24.16184 56.85000 36854 ft 541 kts 122°
2026-04-26 09:42 24.12087 56.91903 36848 ft 541 kts 122°
2026-04-26 09:42 24.07985 56.98804 36840 ft 541 kts 122°
2026-04-26 09:43 24.03881 57.05698 36836 ft 541 kts 122°
2026-04-26 09:43 23.99773 57.12591 36832 ft 540 kts 122°
2026-04-26 09:44 23.95665 57.19473 36826 ft 541 kts 122°
2026-04-26 09:44 23.91548 57.26361 36825 ft 539 kts 121°
2026-04-26 09:45 23.87418 57.33260 36824 ft 539 kts 121°
2026-04-26 09:45 23.83234 57.40242 36817 ft 540 kts 121°
2026-04-26 09:46 23.79129 57.47081 36829 ft 538 kts 121°
2026-04-26 09:46 23.75022 57.53914 36836 ft 540 kts 121°
2026-04-26 09:47 23.70896 57.60770 36839 ft 539 kts 121°
2026-04-26 09:47 23.66766 57.67622 36844 ft 539 kts 122°
2026-04-26 09:48 23.62666 57.74416 36849 ft 537 kts 122°
2026-04-26 09:48 23.58523 57.81272 36863 ft 539 kts 122°
2026-04-26 09:49 23.54404 57.88079 36874 ft 538 kts 121°
2026-04-26 09:49 23.51171 57.95354 36885 ft 531 kts 103°
2026-04-26 09:50 23.49966 58.03162 36899 ft 521 kts 86°
2026-04-26 09:50 23.50838 58.10829 36873 ft 508 kts 68°
2026-04-26 09:51 23.53640 58.17723 36868 ft 489 kts 51°
2026-04-26 09:51 23.57821 58.23479 36871 ft 485 kts 45°
2026-04-26 09:52 23.62029 58.29261 36859 ft 485 kts 45°
2026-04-26 09:52 23.68435 58.37804 36847 ft 484 kts 44°
2026-04-26 09:53 23.72725 58.43425 36841 ft 486 kts 44°
2026-04-26 09:53 23.77080 58.49091 36835 ft 486 kts 44°
2026-04-26 09:54 23.81420 58.54723 36828 ft 483 kts 44°
2026-04-26 09:54 23.85779 58.60371 36823 ft 486 kts 44°
2026-04-26 09:55 23.90111 58.65986 36815 ft 485 kts 44°
2026-04-26 09:55 23.94476 58.71645 36807 ft 485 kts 44°
2026-04-26 09:56 23.98859 58.77333 36801 ft 488 kts 44°
2026-04-26 09:56 24.03210 58.82986 36798 ft 486 kts 44°
2026-04-26 09:57 24.07557 58.88640 36801 ft 485 kts 44°
2026-04-26 09:57 24.11933 58.94335 36810 ft 488 kts 44°
2026-04-26 09:58 24.16278 59.00000 36813 ft 485 kts 44°
2026-04-26 09:58 24.20666 59.05724 36809 ft 488 kts 44°
2026-04-26 09:59 24.24290 59.10458 36809 ft 487 kts 44°
2026-04-26 09:59 24.29373 59.17106 36810 ft 489 kts 44°
2026-04-26 10:00 24.33749 59.22836 36810 ft 487 kts 44°
2026-04-26 10:00 24.38107 59.28549 36812 ft 490 kts 45°
2026-04-26 10:01 24.42479 59.34287 36815 ft 489 kts 44°
2026-04-26 10:01 24.46832 59.40007 36809 ft 491 kts 45°
2026-04-26 10:02 24.51206 59.45762 36807 ft 490 kts 45°
2026-04-26 10:02 24.55591 59.51537 36809 ft 492 kts 45°
2026-04-26 10:03 24.59934 59.57265 36812 ft 492 kts 44°
2026-04-26 10:03 24.64303 59.63034 36807 ft 491 kts 44°
2026-04-26 10:04 24.68704 59.68851 36798 ft 493 kts 45°
2026-04-26 10:04 24.73068 59.74629 36790 ft 492 kts 45°
2026-04-26 10:05 24.77448 59.80431 36790 ft 495 kts 45°
2026-04-26 10:05 24.82088 59.85883 36787 ft 486 kts 34°
2026-04-26 10:06 24.87351 59.90557 36788 ft 485 kts 33°
2026-04-26 10:06 24.92608 59.95194 36781 ft 486 kts 33°
2026-04-26 10:07 24.97856 59.99837 36781 ft 483 kts 34°
2026-04-26 10:07 25.03113 60.04494 36781 ft 486 kts 33°
2026-04-26 10:08 25.08434 60.09217 36778 ft 488 kts 34°
2026-04-26 10:08 25.13728 60.13924 36785 ft 487 kts 33°
2026-04-26 10:09 25.18973 60.18595 36785 ft 487 kts 34°
2026-04-26 10:09 25.24284 60.23337 36774 ft 486 kts 34°
2026-04-26 10:10 25.29532 60.28028 36780 ft 489 kts 34°
2026-04-26 10:10 25.34843 60.32782 36784 ft 487 kts 34°
2026-04-26 10:11 25.40131 60.37510 36774 ft 487 kts 32°
2026-04-26 10:11 25.45985 60.41130 36778 ft 478 kts 15°
2026-04-26 10:12 25.52337 60.42771 36782 ft 467 kts
2026-04-26 10:12 25.58797 60.43872 36795 ft 469 kts
2026-04-26 10:13 25.65273 60.44973 36814 ft 470 kts
2026-04-26 10:13 25.71780 60.46082 36819 ft 469 kts
2026-04-26 10:14 25.78201 60.47178 36828 ft 469 kts
2026-04-26 10:14 25.84684 60.48286 36825 ft 470 kts
2026-04-26 10:15 25.91170 60.49396 36829 ft 469 kts
2026-04-26 10:15 25.97655 60.50508 36837 ft 471 kts
2026-04-26 10:16 26.04128 60.51622 36842 ft 471 kts
2026-04-26 10:16 26.10663 60.52747 36864 ft 472 kts
2026-04-26 10:17 26.17182 60.53871 36906 ft 471 kts
2026-04-26 10:17 26.23725 60.54999 36925 ft 475 kts
2026-04-26 10:18 26.30243 60.56126 36947 ft 475 kts
2026-04-26 10:18 26.36866 60.57268 36985 ft 489 kts
2026-04-26 10:19 26.43679 60.58447 37012 ft 498 kts
2026-04-26 10:19 26.50533 60.59638 37043 ft 497 kts
2026-04-26 10:20 26.56262 60.60633 37061 ft 497 kts
2026-04-26 10:20 26.64234 60.62019 37098 ft 497 kts
2026-04-26 10:21 26.71111 60.63215 37141 ft 499 kts
2026-04-26 10:21 26.77972 60.64410 37159 ft 497 kts
2026-04-26 10:22 26.84857 60.65609 37129 ft 499 kts
2026-04-26 10:22 26.91701 60.66802 37088 ft 499 kts
2026-04-26 10:23 26.98620 60.67992 37055 ft 499 kts
2026-04-26 10:23 27.05497 60.69164 37037 ft 500 kts
2026-04-26 10:24 27.12422 60.70348 37032 ft 499 kts
2026-04-26 10:24 27.19377 60.71537 37025 ft 502 kts
2026-04-26 10:25 27.26281 60.72457 37017 ft 499 kts 359°
2026-04-26 10:25 27.33211 60.72950 37043 ft 497 kts 359°
2026-04-26 10:26 27.40128 60.73439 37066 ft 499 kts 359°
2026-04-26 10:26 27.47101 60.73936 37080 ft 499 kts 359°
2026-04-26 10:27 27.54040 60.74433 37097 ft 499 kts 359°
2026-04-26 10:27 27.60981 60.74932 37105 ft 499 kts 359°
2026-04-26 10:28 27.67934 60.75433 37113 ft 498 kts 359°
2026-04-26 10:28 27.74909 60.75937 37127 ft 500 kts 359°
2026-04-26 10:29 27.81864 60.76476 37147 ft 501 kts 359°
2026-04-26 10:29 27.88812 60.77047 37178 ft 500 kts 359°
2026-04-26 10:30 27.95841 60.77623 37209 ft 503 kts 359°
2026-04-26 10:30 28.02787 60.78193 37230 ft 501 kts 359°
2026-04-26 10:31 28.09769 60.78765 37224 ft 500 kts 359°
2026-04-26 10:31 28.16757 60.79337 37218 ft 501 kts 359°
2026-04-26 10:32 28.23775 60.79913 37219 ft 502 kts 359°
2026-04-26 10:32 28.30723 60.80484 37230 ft 501 kts 359°
2026-04-26 10:33 28.37740 60.81061 37246 ft 503 kts 359°
2026-04-26 10:33 28.44716 60.81638 37261 ft 502 kts 359°
2026-04-26 10:34 28.51686 60.82213 37273 ft 503 kts 359°
2026-04-26 10:34 28.58701 60.82792 37288 ft 504 kts 359°
2026-04-26 10:35 28.65677 60.83367 37295 ft 503 kts 359°
2026-04-26 10:35 28.72709 60.83949 37303 ft 504 kts 359°
2026-04-26 10:36 28.79727 60.84531 37299 ft 504 kts 359°
2026-04-26 10:36 28.86753 60.85113 37300 ft 504 kts 359°
2026-04-26 10:37 28.93733 60.85775 37310 ft 507 kts
2026-04-26 10:37 29.00559 60.88178 37317 ft 523 kts 21°
2026-04-26 10:38 29.06718 60.92760 37297 ft 529 kts 33°
2026-04-26 10:38 29.12601 60.97948 37307 ft 532 kts 33°
2026-04-26 10:39 29.18472 61.03096 37299 ft 531 kts 33°
2026-04-26 10:39 29.24345 61.08222 37237 ft 533 kts 33°
2026-04-26 10:40 29.30241 61.13365 37207 ft 532 kts 33°
2026-04-26 10:40 29.36118 61.18488 37193 ft 533 kts 33°
2026-04-26 10:41 29.42039 61.23653 37174 ft 532 kts 33°
2026-04-26 10:41 29.47909 61.28778 37172 ft 533 kts 33°
2026-04-26 10:42 29.52842 61.33091 37131 ft 531 kts 33°
2026-04-26 10:42 29.59685 61.39080 37036 ft 535 kts 34°
2026-04-26 10:43 29.65597 61.44265 36973 ft 534 kts 33°
2026-04-26 10:43 29.71614 61.49328 36931 ft 534 kts 29°
2026-04-26 10:44 29.77822 61.53934 36921 ft 532 kts 29°
2026-04-26 10:44 29.84047 61.58577 36916 ft 531 kts 29°
2026-04-26 10:45 29.90243 61.63227 36902 ft 534 kts 29°
2026-04-26 10:45 29.96535 61.67973 36895 ft 535 kts 30°
2026-04-26 10:46 30.02751 61.72675 36888 ft 534 kts 30°
2026-04-26 10:46 30.08974 61.77393 36887 ft 535 kts 30°
2026-04-26 10:47 30.15371 61.81783 36882 ft 531 kts 20°
2026-04-26 10:47 30.22405 61.84106 36892 ft 520 kts
2026-04-26 10:48 30.29603 61.84642 36897 ft 515 kts 358°
2026-04-26 10:48 30.36737 61.84990 36897 ft 514 kts 358°
2026-04-26 10:49 30.43940 61.85331 36903 ft 516 kts 358°
2026-04-26 10:49 30.51112 61.85668 36893 ft 515 kts 358°
2026-04-26 10:50 30.57104 61.85945 36894 ft 516 kts 358°
2026-04-26 10:50 30.65504 61.86332 36899 ft 517 kts 358°
2026-04-26 10:51 30.76273 61.86824 36898 ft 516 kts 358°
2026-04-26 10:52 30.83465 61.87153 36909 ft 516 kts 358°
2026-04-26 10:52 30.90644 61.87482 36908 ft 517 kts 358°
2026-04-26 10:53 30.97829 61.87812 36913 ft 518 kts 358°
2026-04-26 10:53 31.05053 61.88144 36909 ft 519 kts 358°
2026-04-26 10:54 31.15769 61.89719 36915 ft 525 kts
2026-04-26 10:54 31.23100 61.91292 36899 ft 524 kts
2026-04-26 10:55 31.30266 61.92830 36895 ft 523 kts
2026-04-26 10:55 31.35904 61.94036 36897 ft 525 kts
2026-04-26 10:56 31.44087 61.95791 36908 ft 523 kts
2026-04-26 10:56 31.51251 61.97328 36912 ft 524 kts
2026-04-26 10:57 31.58427 61.98869 36919 ft 523 kts
2026-04-26 10:57 31.65622 62.00416 36919 ft 524 kts
2026-04-26 10:58 31.72787 62.01956 36923 ft 524 kts
2026-04-26 10:58 31.79965 62.03503 36931 ft 522 kts
2026-04-26 10:59 31.87130 62.05054 36938 ft 524 kts
2026-04-26 10:59 31.94318 62.06612 36942 ft 523 kts
2026-04-26 11:00 32.01463 62.08162 36945 ft 524 kts
2026-04-26 11:00 32.08628 62.09718 36957 ft 525 kts
2026-04-26 11:01 32.15826 62.11286 36955 ft 522 kts
2026-04-26 11:01 32.22990 62.12844 36959 ft 526 kts
2026-04-26 11:02 32.30191 62.14418 36970 ft 524 kts
2026-04-26 11:02 32.37357 62.15893 36965 ft 520 kts
2026-04-26 11:03 32.44556 62.16668 36986 ft 519 kts 359°
2026-04-26 11:03 32.51784 62.17403 36993 ft 520 kts 359°
2026-04-26 11:04 32.58956 62.18140 37012 ft 519 kts 359°
2026-04-26 11:04 32.66187 62.18884 37027 ft 521 kts 359°
2026-04-26 11:05 32.73386 62.19629 37051 ft 521 kts 359°
2026-04-26 11:05 32.80607 62.20379 37081 ft 520 kts 359°
2026-04-26 11:06 32.86606 62.21002 37120 ft 519 kts 359°
2026-04-26 11:06 32.95005 62.21878 37174 ft 520 kts 359°
2026-04-26 11:07 33.02197 62.22626 37211 ft 519 kts 359°
2026-04-26 11:07 33.09366 62.23363 37191 ft 519 kts 359°
2026-04-26 11:08 33.16625 62.24109 37143 ft 521 kts 359°
2026-04-26 11:08 33.23889 62.24858 37126 ft 519 kts 359°
2026-04-26 11:09 33.31068 62.25602 37119 ft 518 kts 359°
2026-04-26 11:09 33.38225 62.26955 37144 ft 527 kts 12°
2026-04-26 11:10 33.44985 62.30568 37188 ft 537 kts 25°
2026-04-26 11:10 33.51520 62.34982 37209 ft 538 kts 25°
2026-04-26 11:11 33.57991 62.39364 37225 ft 539 kts 25°
2026-04-26 11:11 33.64545 62.43801 37247 ft 538 kts 25°
2026-04-26 11:12 33.71031 62.48195 37262 ft 537 kts 25°
2026-04-26 11:12 33.77551 62.52616 37291 ft 537 kts 25°
2026-04-26 11:13 33.84038 62.57022 37312 ft 535 kts 25°
2026-04-26 11:13 33.90500 62.61416 37307 ft 536 kts 25°
2026-04-26 11:14 33.97002 62.65846 37355 ft 535 kts 26°
2026-04-26 11:14 34.02418 62.69540 37346 ft 537 kts 26°
2026-04-26 11:15 34.10003 62.74725 37332 ft 536 kts 26°
2026-04-26 11:15 34.16513 62.79183 37309 ft 536 kts 25°
2026-04-26 11:16 34.22988 62.83624 37282 ft 537 kts 25°
2026-04-26 11:16 34.29469 62.88080 37292 ft 533 kts 25°
2026-04-26 11:17 34.35920 62.92520 37313 ft 537 kts 25°
2026-04-26 11:17 34.42397 62.96988 37331 ft 534 kts 25°
2026-04-26 11:18 34.48842 63.01440 37359 ft 536 kts 25°
2026-04-26 11:18 34.55298 63.05909 37345 ft 534 kts 25°
2026-04-26 11:19 34.61724 63.10365 37326 ft 533 kts 25°
2026-04-26 11:19 34.68139 63.14821 37303 ft 534 kts 26°
2026-04-26 11:20 34.73500 63.18552 37291 ft 531 kts 25°
2026-04-26 11:20 34.80988 63.23772 37285 ft 532 kts 25°
2026-04-26 11:21 34.87435 63.28274 37269 ft 533 kts 26°
2026-04-26 11:21 34.93852 63.32766 37254 ft 531 kts 25°
2026-04-26 11:22 35.00264 63.37259 37259 ft 533 kts 25°
2026-04-26 11:22 35.06647 63.41743 37245 ft 531 kts 25°
2026-04-26 11:23 35.13076 63.46265 37241 ft 534 kts 25°
2026-04-26 11:23 35.19532 63.50816 37243 ft 532 kts 25°
2026-04-26 11:24 35.25980 63.55370 37231 ft 531 kts 25°
2026-04-26 11:24 35.32361 63.59884 37242 ft 534 kts 25°
2026-04-26 11:25 35.38808 63.64453 37256 ft 533 kts 25°
2026-04-26 11:25 35.45263 63.69038 37255 ft 534 kts 26°
2026-04-26 11:26 35.51684 63.73605 37262 ft 534 kts 26°
2026-04-26 11:26 35.58125 63.78198 37258 ft 534 kts 25°
2026-04-26 11:27 35.64559 63.82792 37264 ft 534 kts 25°
2026-04-26 11:27 35.70944 63.87359 37247 ft 536 kts 26°
2026-04-26 11:28 35.77425 63.92005 37225 ft 536 kts 26°
2026-04-26 11:28 35.83844 63.96615 37226 ft 536 kts 26°
2026-04-26 11:29 35.90285 64.01249 37220 ft 536 kts 26°
2026-04-26 11:29 35.96706 64.05879 37219 ft 534 kts 26°
2026-04-26 11:30 36.02020 64.09716 37217 ft 534 kts 26°
2026-04-26 11:30 36.09525 64.15147 37216 ft 535 kts 26°
2026-04-26 11:31 36.16006 64.19845 37204 ft 536 kts 26°
2026-04-26 11:31 36.22431 64.24513 37195 ft 538 kts 26°
2026-04-26 11:32 36.28863 64.29195 37191 ft 537 kts 26°
2026-04-26 11:32 36.35326 64.33907 37194 ft 540 kts 26°
2026-04-26 11:33 36.41784 64.38627 37193 ft 538 kts 26°
2026-04-26 11:33 36.48240 64.43353 37185 ft 538 kts 26°
2026-04-26 11:34 36.54684 64.48079 37181 ft 540 kts 26°
2026-04-26 11:34 36.61135 64.52821 37177 ft 539 kts 26°
2026-04-26 11:35 36.67612 64.57591 37172 ft 541 kts 26°
2026-04-26 11:35 36.72989 64.61558 37154 ft 538 kts 26°
2026-04-26 11:36 36.80563 64.67155 37130 ft 544 kts 26°
2026-04-26 11:36 36.87061 64.71971 37127 ft 542 kts 26°
2026-04-26 11:37 36.93544 64.76781 37104 ft 544 kts 26°
2026-04-26 11:37 36.99880 64.82044 37099 ft 548 kts 31°
2026-04-26 11:38 37.06114 64.87604 37420 ft 551 kts 31°
2026-04-26 11:38 37.09270 64.90427 37872 ft 548 kts 31°
2026-04-26 11:38 37.12384 64.93216 38212 ft 547 kts 31°
2026-04-26 11:39 37.15473 64.95982 38393 ft 549 kts 31°
2026-04-26 11:39 37.18611 64.98793 38581 ft 549 kts 31°
2026-04-26 11:39 37.21715 65.01578 38740 ft 550 kts 31°
2026-04-26 11:39 37.24829 65.04375 38905 ft 550 kts 31°
2026-04-26 11:40 37.27918 65.07152 39075 ft 549 kts 32°
2026-04-26 11:40 37.31003 65.09930 39083 ft 550 kts 31°
2026-04-26 11:40 37.37175 65.15497 39080 ft 535 kts 31°
2026-04-26 11:41 37.40174 65.18208 39081 ft 524 kts 31°
2026-04-26 11:42 37.60944 65.37023 39075 ft 525 kts 31°
2026-04-26 11:43 37.66853 65.42405 39081 ft 524 kts 32°
2026-04-26 11:43 37.72752 65.47784 39080 ft 526 kts 31°
2026-04-26 11:44 37.78680 65.53202 39079 ft 525 kts 32°
2026-04-26 11:44 37.84567 65.58593 39081 ft 528 kts 32°
2026-04-26 11:45 37.90540 65.64076 39092 ft 525 kts 32°
2026-04-26 11:45 37.96441 65.69505 39082 ft 525 kts 33°
2026-04-26 11:46 38.02373 65.74972 39084 ft 527 kts 33°
2026-04-26 11:46 38.08299 65.80444 39096 ft 528 kts 33°
2026-04-26 11:47 38.14188 65.85893 39087 ft 525 kts 33°
2026-04-26 11:47 38.20179 65.91446 39096 ft 527 kts 32°
2026-04-26 11:48 38.26100 65.96948 39102 ft 525 kts 33°
2026-04-26 11:48 38.32010 66.02449 39113 ft 526 kts 33°
2026-04-26 11:49 38.37902 66.07946 39108 ft 527 kts 33°
2026-04-26 11:49 38.43822 66.13480 39116 ft 527 kts 33°
2026-04-26 11:50 38.49668 66.18965 39115 ft 528 kts 33°
2026-04-26 11:50 38.55636 66.24570 39120 ft 528 kts 33°
2026-04-26 11:51 38.61530 66.30111 39115 ft 527 kts 33°
2026-04-26 11:51 38.67421 66.35661 39111 ft 528 kts 33°
2026-04-26 11:52 38.72346 66.40311 39120 ft 527 kts 33°
2026-04-26 11:52 38.79191 66.46787 39120 ft 526 kts 33°
2026-04-26 11:53 38.84933 66.52533 39124 ft 530 kts 40°
2026-04-26 11:54 38.92873 66.62363 39144 ft 532 kts 41°
2026-04-26 11:54 38.98185 66.69007 39133 ft 529 kts 42°
2026-04-26 11:55 39.03440 66.75591 39135 ft 532 kts 42°
2026-04-26 11:55 39.08750 66.82141 39158 ft 529 kts 41°
2026-04-26 11:56 39.14105 66.88721 39165 ft 530 kts 41°
2026-04-26 11:56 39.19472 66.95337 39188 ft 530 kts 41°
2026-04-26 11:57 39.24776 67.01891 39234 ft 532 kts 41°
2026-04-26 11:57 39.30099 67.08488 39241 ft 529 kts 41°
2026-04-26 11:58 39.35379 67.15048 39256 ft 532 kts 41°
2026-04-26 11:58 39.40693 67.21664 39245 ft 532 kts 41°
2026-04-26 11:59 39.46316 67.27904 39245 ft 533 kts 35°
2026-04-26 11:59 39.52097 67.33769 39217 ft 531 kts 34°
2026-04-26 12:00 39.57890 67.39658 39223 ft 528 kts 34°
2026-04-26 12:00 39.63670 67.45554 39224 ft 528 kts 34°
2026-04-26 12:00 39.66515 67.48462 39043 ft 521 kts 34°
2026-04-26 12:01 39.69355 67.51368 38095 ft 527 kts 34°
2026-04-26 12:01 39.72255 67.54336 36919 ft 534 kts 34°
2026-04-26 12:01 39.75175 67.57329 35979 ft 536 kts 35°
2026-04-26 12:01 39.78104 67.60337 35061 ft 537 kts 35°
2026-04-26 12:02 39.81022 67.63337 34088 ft 538 kts 35°
2026-04-26 12:02 39.82946 67.65318 33480 ft 539 kts 36°
2026-04-26 12:02 39.85901 67.68360 32482 ft 540 kts 36°
2026-04-26 12:02 39.89872 67.72456 31053 ft 542 kts 36°
2026-04-26 12:03 39.92643 67.75318 30365 ft 537 kts 37°
2026-04-26 12:03 39.95529 67.78303 29821 ft 529 kts 37°
2026-04-26 12:03 39.98376 67.81252 29200 ft 522 kts 37°
2026-04-26 12:03 40.01197 67.84175 28532 ft 517 kts 37°
2026-04-26 12:04 40.03997 67.87080 27857 ft 512 kts 37°
2026-04-26 12:04 40.06769 67.89959 27196 ft 506 kts 37°
2026-04-26 12:04 40.09488 67.92786 26518 ft 501 kts 37°
2026-04-26 12:04 40.12228 67.95637 25827 ft 496 kts 37°
2026-04-26 12:05 40.14930 67.98452 25137 ft 491 kts 37°
2026-04-26 12:05 40.17596 68.01233 24432 ft 485 kts 37°
2026-04-26 12:05 40.20227 68.03979 23734 ft 480 kts 37°
2026-04-26 12:05 40.22826 68.06695 23051 ft 474 kts 37°
2026-04-26 12:06 40.25352 68.09337 22386 ft 468 kts 37°
2026-04-26 12:06 40.27873 68.11976 21709 ft 463 kts 37°
2026-04-26 12:06 40.30376 68.14601 21027 ft 458 kts 38°
2026-04-26 12:06 40.32851 68.17201 20364 ft 453 kts 38°
2026-04-26 12:07 40.35287 68.19762 19679 ft 449 kts 38°
2026-04-26 12:07 40.37723 68.22321 18986 ft 444 kts 38°
2026-04-26 12:07 40.40096 68.24816 18318 ft 440 kts 38°
2026-04-26 12:07 40.42452 68.27298 17637 ft 435 kts 38°
2026-04-26 12:08 40.44807 68.29781 16971 ft 431 kts 39°
2026-04-26 12:08 40.47132 68.32234 16294 ft 426 kts 39°
2026-04-26 12:08 40.49404 68.34633 15623 ft 422 kts 39°
2026-04-26 12:08 40.51685 68.37045 14971 ft 418 kts 39°
2026-04-26 12:09 40.53943 68.39432 14278 ft 415 kts 39°
2026-04-26 12:09 40.56261 68.41888 13613 ft 453 kts 39°
2026-04-26 12:09 40.58628 68.44398 13278 ft 426 kts 40°
2026-04-26 12:09 40.60880 68.46784 12734 ft 410 kts 39°
2026-04-26 12:10 40.63060 68.49096 12481 ft 395 kts 39°
2026-04-26 12:10 40.65171 68.51337 12031 ft 380 kts 39°
2026-04-26 12:10 40.67171 68.53463 11560 ft 362 kts 39°
2026-04-26 12:10 40.69080 68.55493 11277 ft 345 kts 39°
2026-04-26 12:11 40.70889 68.57419 11221 ft 331 kts 39°
2026-04-26 12:11 40.72653 68.59299 11197 ft 315 kts 39°
2026-04-26 12:11 40.74309 68.61065 11124 ft 299 kts 39°
2026-04-26 12:11 40.75891 68.62754 10954 ft 291 kts 39°
2026-04-26 12:12 40.77468 68.64439 10589 ft 292 kts 38°
2026-04-26 12:12 40.79052 68.66132 10227 ft 292 kts 39°
2026-04-26 12:12 40.80631 68.67825 9943 ft 289 kts 40°
2026-04-26 12:12 40.81626 68.69004 9741 ft 289 kts 43°
2026-04-26 12:13 40.83550 68.71454 9256 ft 289 kts 45°
2026-04-26 12:13 40.84999 68.73310 8954 ft 287 kts 44°
2026-04-26 12:13 40.86413 68.75117 8682 ft 285 kts 44°
2026-04-26 12:13 40.87826 68.76920 8361 ft 284 kts 44°
2026-04-26 12:14 40.89243 68.78731 8025 ft 284 kts 44°
2026-04-26 12:14 40.90651 68.80530 7791 ft 280 kts 44°
2026-04-26 12:14 40.92042 68.82310 7616 ft 278 kts 44°
2026-04-26 12:14 40.93443 68.84104 7435 ft 278 kts 44°
2026-04-26 12:15 40.94830 68.85880 7236 ft 277 kts 44°
2026-04-26 12:15 40.96202 68.87637 7034 ft 269 kts 44°
2026-04-26 12:15 40.97538 68.89347 6822 ft 268 kts 44°
2026-04-26 12:15 40.98870 68.91061 6605 ft 264 kts 44°
2026-04-26 12:16 41.00170 68.92733 6394 ft 262 kts 44°
2026-04-26 12:16 41.01488 68.94428 6186 ft 263 kts 44°
2026-04-26 12:16 41.02813 68.96094 5956 ft 261 kts 38°
2026-04-26 12:16 41.04424 68.97036 5704 ft 255 kts
2026-04-26 12:17 41.06179 68.97150 5472 ft 251 kts 347°
2026-04-26 12:17 41.07783 68.96212 5408 ft 255 kts 326°
2026-04-26 12:17 41.09218 68.94845 5296 ft 252 kts 323°
2026-04-26 12:17 41.10644 68.93533 5115 ft 247 kts 327°
2026-04-26 12:18 41.12100 68.92389 4929 ft 243 kts 331°
2026-04-26 12:18 41.13615 68.91431 4722 ft 239 kts 343°
2026-04-26 12:18 41.15255 68.91253 4497 ft 236 kts
2026-04-26 12:18 41.16757 68.92012 4297 ft 234 kts 33°
2026-04-26 12:19 41.18005 68.93392 4111 ft 232 kts 40°
2026-04-26 12:19 41.19181 68.94840 3935 ft 232 kts 40°
2026-04-26 12:19 41.20363 68.96301 3745 ft 232 kts 40°
2026-04-26 12:19 41.21534 68.97771 3550 ft 227 kts 45°
2026-04-26 12:20 41.22286 68.99593 3358 ft 221 kts 68°
2026-04-26 12:20 41.22661 69.01594 3171 ft 224 kts 75°
2026-04-26 12:20 41.22917 69.03571 3023 ft 209 kts 77°
2026-04-26 12:20 41.23128 69.05393 3002 ft 196 kts 77°
2026-04-26 12:21 41.23333 69.07194 3003 ft 193 kts 77°
2026-04-26 12:21 41.23521 69.08903 3019 ft 184 kts 77°
2026-04-26 12:21 41.23703 69.10544 3018 ft 179 kts 76°
2026-04-26 12:21 41.23884 69.12157 3016 ft 175 kts 77°
2026-04-26 12:22 41.24058 69.13728 3006 ft 166 kts 76°
2026-04-26 12:22 41.24219 69.15172 2988 ft 156 kts 76°
2026-04-26 12:22 41.24375 69.16576 2787 ft 149 kts 75°
2026-04-26 12:22 41.24526 69.17921 2604 ft 148 kts 75°
2026-04-26 12:23 41.24664 69.19283 2388 ft 146 kts 73°
2026-04-26 12:23 41.24832 69.20612 2201 ft 142 kts 79°
2026-04-26 12:23 41.24955 69.21909 2023 ft 141 kts 72°
2026-04-26 12:23 41.25109 69.23204 1855 ft 143 kts 72°
2026-04-26 12:24 41.25254 69.24513 1670 ft 143 kts 72°
2026-04-26 12:24 41.25390 69.25803 1479 ft 141 kts 72°
2026-04-26 12:24 41.25538 69.27006 1427 ft 116 kts 81°
2026-04-26 12:25 41.25677 69.28328 1428 ft 31 kts 80°
2026-04-26 12:25 41.25710 69.28606 1428 ft 30 kts 81°
2026-04-26 12:25 41.25736 69.28829 1428 ft 20 kts 68°
2026-04-26 12:25 41.25842 69.28922 1428 ft 17 kts 22°
2026-04-26 12:26 41.25927 69.28893 1428 ft 14 kts 283°
2026-04-26 12:26 41.25906 69.28657 1428 ft 33 kts 261°
2026-04-26 12:26 41.25866 69.28295 1428 ft 44 kts 261°
2026-04-26 12:26 41.25833 69.27988 1428 ft 30 kts 263°
2026-04-26 12:27 41.25802 69.27734 1428 ft 23 kts 262°
2026-04-26 12:27 41.25806 69.27538 1428 ft 18 kts 305°
2026-04-26 12:27 41.25899 69.27431 1428 ft 16 kts 320°
2026-04-26 12:27 41.25983 69.27335 1428 ft 15 kts 318°
2026-04-26 12:28 41.26057 69.27247 1428 ft 11 kts 318°
2026-04-26 12:28 41.26115 69.27197 1428 ft 8 kts 355°
2026-04-26 12:28 41.26163 69.27216 1428 ft 6 kts 32°
2026-04-26 12:28 41.26192 69.27254 1428 ft 4 kts 58°
2026-04-26 12:29 41.26201 69.27276 1428 ft 5 kts 70°
2026-04-26 12:29 41.26205 69.27291 1428 ft 1 kts 71°
2026-04-26 12:29 41.26209 69.27316 1428 ft 2 kts 80°
2026-04-26 12:30 41.26209 69.27319 1428 ft 0 kts 80°